FW2567 Weather Reports


time (UTC)temp
C
wind
direction
speed
KPH
gust
KPH
rain 1hr
cm
rain 24hr
cm
rain mn
cm
humidity
%
barometer
mb
20260901230030 20 314 16.1 33.8 0.00 0.00 0.00 56 1011.1
20260901223107 20 303 17.7 41.8 0.00 0.00 0.00 56 1010.9
20260901221530 21 286 17.7 40.2 0.00 0.00 0.00 56 1010.8
20260901220030 20 300 14.5 33.8 0.00 0.00 0.00 56 1010.6
20260901214532 20 305 16.1 38.6 0.00 0.00 0.00 57 1010.4
20260901213105 20 315 14.5 30.6 0.00 0.00 0.00 57 1010.6
20260901211531 20 301 16.1 38.6 0.00 0.00 0.00 57 1010.7
20260901210031 20 291 19.3 35.4 0.00 0.00 0.00 56 1010.8
20260901203031 20 294 14.5 35.4 0.00 0.00 0.00 54 1011.1
20260901201643 20 300 14.5 35.4 0.00 0.00 0.00 53 1011.0
20260901194534 20 295 12.9 32.2 0.00 0.00 0.00 53 1011.4
20260901193028 21 292 12.9 30.6 0.00 0.00 0.00 52 1011.7
20260901184607 22 300 9.7 27.4 0.00 0.00 0.00 54 1012.0
20260901183107 21 235 4.8 17.7 0.00 0.00 0.00 56 1012.1
20260901180030 20 251 3.2 9.7 0.00 0.00 0.00 62 1012.4
20260901174606 18 245 4.8 11.3 0.00 0.00 0.00 67 1012.5
20260901173029 18 233 1.6 8.0 0.00 0.00 0.00 70 1012.6
20260901171604 17 248 1.6 8.0 0.00 0.00 0.00 74 1012.6
20260901170032 16 289 1.6 4.8 0.00 0.00 0.00 79 1012.6
20260901164530 15 174 0.0 3.2 0.00 0.00 0.00 83 1012.7
20260901163032 15 85 1.6 6.4 0.00 0.00 0.00 88 1012.6
20260901161528 12 155 0.0 3.2 0.00 0.00 0.00 92 1012.6
20260901160032 11 218 0.0 3.2 0.00 0.00 0.00 93 1012.5
20260901154530 11 203 0.0 3.2 0.00 0.00 0.00 93 1012.4
20260901153030 10 180 0.0 0.0 0.00 0.00 0.00 93 1012.4
20260901151531 9 180 0.0 3.2 0.00 0.00 0.00 93 1012.4
20260901150033 8 169 1.6 4.8 0.00 0.00 0.00 92 1012.2
20260901144606 8 157 1.6 3.2 0.00 0.00 0.00 92 1012.2
20260901143106 8 157 1.6 3.2 0.00 0.00 0.00 92 1012.1
20260901140033 7 135 0.0 4.8 0.00 0.00 0.00 91 1011.9
20260901134530 7 154 0.0 4.8 0.00 0.00 0.00 91 1011.7
20260901133029 7 157 0.0 8.0 0.00 0.00 0.00 91 1011.5
20260901131531 7 154 3.2 8.0 0.00 0.00 0.00 91 1011.5
20260901130030 7 150 0.0 6.4 0.00 0.00 0.00 90 1011.4
20260901124530 7 166 3.2 9.7 0.00 0.00 0.00 89 1011.3
20260901123030 7 141 1.6 6.4 0.00 0.00 0.00 89 1011.3
20260901121534 8 157 0.0 0.0 0.00 0.00 0.00 88 1011.3
20260901120030 8 158 1.6 8.0 0.00 0.00 0.00 88 1011.2
20260901114532 8 223 1.6 6.4 0.00 0.00 0.00 88 1011.3
20260901113108 8 168 3.2 8.0 0.00 0.00 0.00 88 1011.3
20260901111531 8 150 0.0 4.8 0.00 0.00 0.00 88 1011.2
20260901110042 8 145 0.0 6.4 0.00 0.00 0.00 88 1011.3
20260901104609 8 152 1.6 4.8 0.00 0.00 0.00 87 1011.3
20260901103031 8 151 1.6 4.8 0.00 0.00 0.00 86 1011.3
20260901101530 8 97 1.6 6.4 0.00 0.00 0.00 86 1011.3
20260901100104 9 150 1.6 6.4 0.00 0.00 0.00 86 1011.3
20260901094608 9 146 3.2 8.0 0.00 0.00 0.00 86 1011.3
20260901093029 8 165 3.2 8.0 0.00 0.00 0.00 86 1011.3
20260901091530 8 153 3.2 8.0 0.00 0.00 0.00 85 1011.3
20260901090032 9 134 0.0 4.8 0.00 0.00 0.00 85 1011.2
20260901084531 9 185 1.6 6.4 0.00 0.00 0.00 85 1011.2
20260901083030 9 199 3.2 8.0 0.00 0.00 0.00 85 1011.4
20260901080030 10 128 1.6 8.0 0.00 0.00 0.00 84 1011.3
20260901074604 10 196 1.6 6.4 0.00 0.00 0.00 83 1011.2
20260901073032 10 218 1.6 6.4 0.00 0.00 0.00 83 1011.2
20260901071529 9 160 1.6 8.0 0.00 0.00 0.00 83 1011.1
20260901070032 10 174 0.0 6.4 0.00 0.00 0.00 82 1011.1
20260901064531 10 157 3.2 4.8 0.00 0.00 0.00 81 1011.2
20260901063029 11 169 0.0 4.8 0.00 0.00 0.00 81 1011.4
20260901061532 11 165 1.6 4.8 0.00 0.00 0.00 82 1011.5
20260901060031 10 157 4.8 6.4 0.00 0.00 0.00 82 1011.6
20260901053031 10 157 1.6 8.0 0.00 0.00 0.00 82 1011.5
20260901051531 11 151 3.2 8.0 0.00 0.00 0.00 80 1011.5
20260901050032 11 199 1.6 6.4 0.00 0.00 0.00 77 1011.6
20260901041530 13 142 4.8 9.7 0.00 0.00 0.00 70 1011.3
20260901034532 15 155 6.4 11.3 0.00 0.00 0.00 70 1011.0
20260901033033 15 148 6.4 9.7 0.00 0.00 0.00 70 1010.9
20260901031531 16 133 1.6 6.4 0.00 0.00 0.00 67 1010.8
20260901030035 -17 0 0.0 0.0 0.00 0.00 0.00 100
20260901024532 17 162 4.8 8.0 0.00 0.00 0.00 62 1010.6
20260901023031 17 157 6.4 11.3 0.00 0.00 0.00 62 1010.4
20260901021530 17 149 3.2 9.7 0.00 0.00 0.00 63 1010.4
20260901020031 18 176 3.2 9.7 0.00 0.00 0.00 59 1010.3
20260901014529 20 222 3.2 6.4 0.00 0.00 0.00 53 1010.3
20260901013031 22 257 4.8 8.0 0.00 0.00 0.00 44 1010.2
20260901011528 24 270 4.8 9.7 0.00 0.00 0.00 39 1010.3
20260901010107 25 257 8.0 12.9 0.00 0.00 0.00 37 1010.3
20260901004533 26 269 6.4 14.5 0.00 0.00 0.00 33 1010.3
20260901003034 27 291 6.4 14.5 0.00 0.00 0.00 31 1010.4
20260901001528 27 326 8.0 17.7 0.00 0.00 0.00 30 1010.4
20260901000107 27 337 6.4 17.7 0.00 0.00 0.00 31 1010.6
20260831234531 27 291 6.4 17.7 0.00 0.00 0.00 31 1010.6
20260831231534 26 304 8.0 19.3 0.00 0.00 0.00 33 1010.9